FW7520 Weather Reports


time (UTC)temp
F
wind
direction
speed
knots
gust
knots
rain 1hr
in
rain 24hr
in
rain mn
in
humidity
%
barometer
mb
20260506201621 70 294 0.0 1.7 0.00 0.00 0.00 69 1019.6
20260506201034 70 345 0.0 1.7 0.00 0.00 0.00 72 1019.8
20260506200532 69 67 0.0 1.7 0.00 0.00 0.00 68 1019.6
20260506195533 69 207 0.9 5.2 0.00 0.00 0.00 67 1019.7
20260506195027 69 50 0.0 5.2 0.00 0.00 0.00 70 1019.7
20260506194628 69 66 0.0 0.9 0.00 0.00 0.00 67 1019.8
20260506194022 69 66 0.0 0.9 0.00 0.00 0.00 68 1019.9
20260506193534 69 14 0.0 2.6 0.00 0.00 0.00 70 1019.9
20260506193115 69 212 0.0 2.6 0.00 0.00 0.00 69 1019.8
20260506192543 68 151 0.0 4.3 0.00 0.00 0.00 71 1020.0
20260506192036 68 189 0.0 4.3 0.00 0.00 0.00 71 1020.0
20260506191613 67 182 0.0 3.5 0.00 0.00 0.00 71 1020.0
20260506191025 67 191 0.0 4.3 0.00 0.00 0.00 71 1020.2
20260506190529 67 156 0.9 4.3 0.00 0.00 0.00 73 1020.3
20260506190136 67 208 0.9 3.5 0.00 0.00 0.00 73 1020.4
20260506185538 67 188 0.9 3.5 0.00 0.00 0.00 73 1020.2
20260506185018 67 234 0.0 4.3 0.00 0.00 0.00 71 1020.2
20260506184612 67 215 0.9 4.3 0.00 0.00 0.00 71 1020.3
20260506184019 68 222 0.9 4.3 0.00 0.00 0.00 75 1020.1
20260506183538 68 203 0.9 4.3 0.00 0.00 0.00 75 1020.3
20260506183129 67 281 2.6 4.3 0.00 0.00 0.00 73 1020.4
20260506182528 67 211 0.9 7.0 0.00 0.00 0.00 75 1020.3
20260506182015 67 277 1.7 7.0 0.00 0.00 0.00 76 1020.2
20260506181554 66 246 0.0 5.2 0.00 0.00 0.00 73 1020.3
20260506181033 66 246 0.9 4.3 0.00 0.00 0.00 75 1020.2
20260506180522 67 258 2.6 5.2 0.00 0.00 0.00 75 1020.1
20260506180123 66 290 1.7 4.3 0.00 0.00 0.00 75 1020.2
20260506175532 65 195 0.9 4.3 0.00 0.00 0.00 76 1020.2
20260506175036 65 184 2.6 6.1 0.00 0.00 0.00 77 1020.2
20260506174623 65 175 0.9 6.1 0.00 0.00 0.00 75 1020.3
20260506174022 65 203 1.7 5.2 0.00 0.00 0.00 75 1020.4
20260506173518 65 258 0.0 1.7 0.00 0.00 0.00 76 1020.4
20260506173129 65 276 0.0 1.7 0.00 0.00 0.00 77 1020.3
20260506172546 65 9 0.0 3.5 0.00 0.00 0.00 75 1020.2
20260506172044 64 342 0.9 3.5 0.00 0.00 0.00 76 1020.1
20260506171610 64 263 0.0 3.5 0.00 0.00 0.00 77 1020.1
20260506171021 64 336 0.9 3.5 0.00 0.00 0.00 77 1020.4
20260506170522 63 11 1.7 3.5 0.00 0.00 0.00 77 1020.4
20260506170114 64 207 1.7 3.5 0.00 0.00 0.00 78 1020.3
20260506165521 63 271 0.9 3.5 0.00 0.00 0.00 78 1020.2
20260506165024 63 272 1.7 4.3 0.00 0.00 0.00 78 1020.2
20260506164627 63 283 1.7 4.3 0.00 0.00 0.00 79 1020.3
20260506164036 62 287 0.0 4.3 0.00 0.00 0.00 79 1020.3
20260506163542 62 286 0.9 3.5 0.00 0.00 0.00 79 1020.1
20260506163130 63 257 0.9 2.6 0.00 0.00 0.00 82 1020.2
20260506162526 62 224 1.7 2.6 0.00 0.00 0.00 80 1020.2
20260506162041 62 293 0.0 0.9 0.00 0.00 0.00 80 1020.3
20260506161631 61 293 0.0 2.6 0.00 0.00 0.00 81 1020.3
20260506161030 61 238 0.0 2.6 0.00 0.00 0.00 80 1020.3
20260506160525 61 244 0.0 2.6 0.00 0.00 0.00 82 1020.2
20260506160100 60 303 0.0 2.6 0.00 0.00 0.00 81 1020.1
20260506155542 60 318 0.0 0.9 0.00 0.00 0.00 82 1020.2
20260506155032 60 318 0.0 2.6 0.00 0.00 0.00 82 1020.4
20260506154645 60 331 0.9 2.6 0.00 0.00 0.00 82 1020.3
20260506154019 60 350 0.0 2.6 0.00 0.00 0.00 83 1020.3
20260506153536 59 75 0.0 2.6 0.00 0.00 0.00 83 1020.2
20260506153128 59 355 0.0 2.6 0.00 0.00 0.00 84 1020.2
20260506152518 59 328 0.0 1.7 0.00 0.00 0.00 85 1020.3
20260506152026 59 61 0.0 2.6 0.00 0.00 0.00 86 1020.2
20260506151622 58 322 0.0 2.6 0.00 0.00 0.00 85 1020.1
20260506151017 58 355 0.0 2.6 0.00 0.00 0.00 85 1020.4
20260506150518 58 7 0.0 4.3 0.00 0.00 0.00 86 1020.6
20260506150120 58 340 0.0 4.3 0.00 0.00 0.00 87 1020.3
20260506145542 57 308 0.9 2.6 0.00 0.00 0.00 88 1020.5
20260506145035 57 303 0.9 3.5 0.00 0.00 0.00 89 1020.4
20260506144634 57 307 0.9 2.6 0.00 0.00 0.00 90 1020.2
20260506144026 56 307 0.0 3.5 0.00 0.00 0.00 90 1020.3
20260506143538 56 307 1.7 3.5 0.00 0.00 0.00 90 1020.3
20260506143110 56 315 1.7 3.5 0.00 0.00 0.00 91 1020.1
20260506142525 55 310 0.9 2.6 0.00 0.00 0.00 91 1020.2
20260506142034 55 310 0.0 2.6 0.00 0.00 0.00 91 1020.2
20260506141614 55 322 0.9 3.5 0.00 0.00 0.00 91 1020.1
20260506141034 55 322 0.0 3.5 0.00 0.00 0.00 91 1019.9
20260506140537 55 310 1.7 4.3 0.00 0.00 0.00 91 1020.0
20260506140133 55 314 1.7 4.3 0.00 0.00 0.00 91 1019.9
20260506135519 55 311 0.9 4.3 0.00 0.00 0.00 91 1019.9
20260506135040 55 295 1.7 4.3 0.00 0.00 0.00 91 1019.9
20260506134632 55 335 1.7 3.5 0.00 0.00 0.00 91 1019.9
20260506134019 55 309 1.7 7.0 0.00 0.00 0.00 91 1019.7
20260506133539 55 304 3.5 7.0 0.00 0.00 0.00 91 1019.9
20260506133105 55 336 2.6 5.2 0.00 0.00 0.00 91 1019.8
20260506132542 55 340 1.7 4.3 0.00 0.00 0.00 90 1019.6
20260506132027 55 317 2.6 4.3 0.00 0.00 0.00 90 1019.6
20260506131604 55 324 1.7 4.3 0.00 0.00 0.00 90 1019.5
20260506131023 55 307 0.9 2.6 0.00 0.00 0.00 90 1019.7
20260506130539 55 307 1.7 2.6 0.00 0.00 0.00 90 1019.6
20260506130134 55 321 0.9 3.5 0.00 0.00 0.00 90 1019.6
20260506125521 55 321 0.9 2.6 0.00 0.00 0.00 90 1019.6
20260506125026 55 296 1.7 2.6 0.00 0.00 0.00 90 1019.4
20260506124629 55 355 0.9 2.6 0.00 0.00 0.00 90 1019.5
20260506124032 55 318 0.9 2.6 0.00 0.00 0.00 90 1019.5
20260506123521 55 318 0.9 2.6 0.00 0.00 0.00 90 1019.6
20260506123059 55 318 0.9 2.6 0.00 0.00 0.00 90 1019.5
20260506122537 55 318 0.0 2.6 0.00 0.00 0.00 90 1019.4
20260506122044 55 318 0.9 2.6 0.00 0.00 0.00 90 1019.5
20260506121639 55 318 0.9 3.5 0.00 0.00 0.00 90 1019.4
20260506121025 55 315 0.9 3.5 0.00 0.00 0.00 90 1019.4
20260506120529 55 304 0.9 3.5 0.00 0.00 0.00 90 1019.3
20260506120146 55 299 1.7 3.5 0.00 0.00 0.00 90 1019.4
20260506115515 55 318 1.7 4.3 0.00 0.00 0.00 90 1019.3
20260506115015 55 334 0.9 4.3 0.00 0.00 0.00 90 1019.2
20260506114609 55 325 0.9 3.5 0.00 0.00 0.00 90 1019.4
20260506114043 55 297 0.0 3.5 0.00 0.00 0.00 90 1019.3
20260506113534 55 317 1.7 3.5 0.00 0.00 0.00 90 1019.3
20260506113111 55 292 0.9 3.5 0.00 0.00 0.00 90 1019.2
20260506112542 55 319 1.7 3.5 0.00 0.00 0.00 90 1019.2
20260506112035 55 307 1.7 5.2 0.00 0.00 0.00 90 1019.0
20260506111634 55 319 3.5 7.0 0.00 0.00 0.00 90 1018.9
20260506111019 55 321 3.5 7.0 0.00 0.00 0.00 90 1019.0
20260506110523 55 305 2.6 5.2 0.00 0.00 0.00 90 1018.9
20260506110140 55 304 2.6 5.2 0.00 0.00 0.00 90 1019.0
20260506105537 55 324 2.6 5.2 0.00 0.00 0.00 90 1018.9
20260506105043 55 324 2.6 5.2 0.00 0.00 0.00 90 1018.8
20260506104644 55 328 1.7 5.2 0.00 0.00 0.00 90 1018.9
20260506104026 55 326 1.7 7.0 0.00 0.00 0.00 90 1019.0
20260506103522 55 263 3.5 7.0 0.00 0.00 0.00 90 1018.8
20260506103133 55 338 2.6 7.0 0.00 0.00 0.00 89 1018.8
20260506102542 55 326 2.6 7.0 0.00 0.00 0.00 89 1018.8
20260506102040 55 310 3.5 7.8 0.00 0.00 0.00 89 1018.8
20260506101642 55 309 3.5 5.2 0.00 0.00 0.00 89 1018.7
20260506101037 55 327 2.6 5.2 0.00 0.00 0.00 89 1018.7
20260506100539 55 322 2.6 5.2 0.00 0.00 0.00 89 1018.7
20260506100140 55 308 1.7 5.2 0.00 0.00 0.00 89 1018.7
20260506095521 55 340 2.6 5.2 0.00 0.04 0.00 89 1018.8
20260506095023 55 313 1.7 5.2 0.00 0.04 0.00 89 1018.6
20260506094634 55 326 1.7 5.2 0.00 0.04 0.00 89 1018.8
20260506094029 55 314 1.7 5.2 0.00 0.04 0.00 89 1018.8
20260506093525 55 315 2.6 5.2 0.00 0.04 0.00 89 1018.8
20260506093141 55 303 2.6 5.2 0.00 0.04 0.00 89 1018.8
20260506092524 55 334 2.6 5.2 0.00 0.04 0.00 89 1018.9
20260506092042 55 302 2.6 5.2 0.00 0.04 0.00 89 1018.9
20260506091643 55 303 2.6 7.0 0.00 0.04 0.00 89 1018.8
20260506091036 55 315 2.6 7.0 0.00 0.04 0.00 88 1018.9
20260506090543 55 334 3.5 7.0 0.00 0.04 0.00 88 1018.9
20260506090148 55 321 4.3 7.8 0.00 0.04 0.00 88 1018.9
20260506085535 55 305 4.3 7.8 0.00 0.09 0.00 88 1018.8
20260506085031 55 325 3.5 7.8 0.00 0.09 0.00 88 1018.8
20260506084716 55 289 3.5 5.2 0.00 0.09 0.00 88 1018.8
20260506084031 55 309 3.5 6.1 0.00 0.09 0.00 89 1018.9
20260506083521 55 332 3.5 7.0 0.00 0.09 0.00 89 1018.9
20260506083118 55 299 3.5 7.0 0.00 0.09 0.00 89 1018.8
20260506082541 55 332 3.5 7.0 0.00 0.09 0.00 89 1018.8
20260506082018 55 340 3.5 7.8 0.00 0.09 0.00 89 1019.0
20260506081638 55 304 4.3 7.8 0.00 0.09 0.00 89 1018.8
20260506081143 55 312 4.3 7.8 0.00 0.09 0.00 89 1018.8
20260506080524 55 317 3.5 7.0 0.00 0.09 0.00 89 1018.9
20260506080118 55 329 3.5 7.0 0.00 0.09 0.00 89 1018.8
20260506073529 55 334 3.5 7.0 0.00 0.14 0.00 89 1018.6
20260506073101 55 299 4.3 7.8 0.00 0.14 0.00 89 1018.6
20260506072518 55 317 3.5 8.7 0.00 0.14 0.00 89 1018.5
20260506072032 55 321 5.2 9.6 0.00 0.14 0.00 89 1018.3
20260506071647 55 355 7.0 9.6 0.00 0.14 0.00 89 1018.3
20260506071041 56 336 4.3 8.7 0.00 0.14 0.00 89 1018.1
20260506070542 56 319 4.3 7.8 0.00 0.14 0.00 89 1018.0
20260506070144 56 320 3.5 7.8 0.00 0.14 0.00 89 1018.1
20260506062018 56 301 4.3 7.8 0.00 0.19 0.09 88 1017.8
20260506061630 56 325 3.5 7.8 0.00 0.19 0.09 88 1017.7
20260506061042 56 327 2.6 7.0 0.00 0.19 0.09 87 1017.7
20260506060532 56 310 1.7 8.7 0.00 0.19 0.09 87 1017.8
20260506060122 56 287 5.2 8.7 0.00 0.19 0.09 87 1017.6
20260506051026 56 317 5.2 10.4 0.00 0.26 0.09 86 1017.5
20260506050537 56 317 5.2 11.3 0.00 0.26 0.09 86 1017.5
20260506050117 56 295 4.3 11.3 0.00 0.26 0.09 86 1017.4
20260506045030 56 335 3.5 8.7 0.00 0.31 0.09 86 1017.2
20260506044648 56 316 4.3 7.8 0.00 0.31 0.09 86 1017.0
20260506044021 56 316 5.2 11.3 0.00 0.31 0.09 86 1016.9
20260506043532 56 324 4.3 11.3 0.00 0.31 0.09 85 1016.8
20260506043117 56 299 4.3 9.6 0.00 0.31 0.09 85 1016.8
20260506042535 56 327 4.3 9.6 0.00 0.31 0.09 85 1016.7
20260506042019 57 317 5.2 11.3 0.00 0.31 0.09 84 1016.9
20260506041653 57 336 7.0 11.3 0.00 0.31 0.09 84 1016.8
20260506041015 57 285 7.0 10.4 0.00 0.31 0.09 84 1016.7
20260506040544 57 350 4.3 9.6 0.00 0.31 0.09 84 1016.8
20260506040149 57 323 4.3 10.4 0.00 0.31 0.09 83 1016.7
20260506035532 57 328 4.3 10.4 0.00 0.36 0.09 83 1016.8
20260506035046 57 314 5.2 8.7 0.00 0.36 0.09 83 1016.7
20260506034653 57 299 4.3 7.8 0.00 0.36 0.09 82 1016.6
20260506034046 57 311 4.3 7.0 0.00 0.36 0.09 82 1016.6
20260506033542 57 292 3.5 7.0 0.00 0.36 0.09 82 1016.4
20260506033148 57 324 3.5 7.0 0.00 0.36 0.09 82 1016.4
20260506032525 57 336 2.6 8.7 0.00 0.36 0.09 81 1016.2
20260506032040 57 323 3.5 8.7 0.00 0.36 0.09 81 1015.9
20260506031643 57 327 5.2 11.3 0.00 0.36 0.09 81 1015.8
20260506031030 57 320 6.1 11.3 0.00 0.36 0.09 81 1015.7
20260506030538 58 324 4.3 9.6 0.00 0.36 0.09 81 1015.7
20260506030110 58 345 3.5 11.3 0.00 0.36 0.09 81 1015.6
20260506025536 58 311 5.2 11.3 0.00 0.39 0.09 81 1015.7
20260506025031 58 341 5.2 11.3 0.00 0.39 0.09 81 1015.6
20260506024647 58 303 6.1 9.6 0.00 0.39 0.09 81 1015.7
20260506024027 58 329 3.5 10.4 0.00 0.39 0.09 80 1015.6
20260506023525 58 324 5.2 13.0 0.00 0.39 0.09 80 1015.5
20260506023206 58 317 7.8 12.2 0.00 0.39 0.09 80 1015.5
20260506022520 59 294 4.3 11.3 0.00 0.39 0.09 80 1015.5
20260506022025 59 317 6.1 11.3 0.00 0.39 0.09 80 1015.4
20260506021623 59 322 7.0 11.3 0.00 0.39 0.09 80 1015.3
20260506021041 59 331 4.3 11.3 0.00 0.39 0.09 80 1015.3
20260506020530 59 334 7.0 12.2 0.00 0.39 0.09 79 1015.2
20260506020143 59 321 6.1 12.2 0.00 0.39 0.09 80 1015.2
20260506015536 59 350 3.5 11.3 0.00 0.42 0.09 80 1015.2
20260506015019 60 303 7.0 12.2 0.00 0.42 0.09 79 1015.1
20260506014636 60 324 5.2 12.2 0.00 0.42 0.09 79 1015.0
20260506014028 60 327 5.2 11.3 0.00 0.42 0.09 79 1015.0
20260506013545 60 317 7.0 12.2 0.00 0.42 0.09 78 1014.9
20260506013251 60 301 4.3 12.2 0.00 0.42 0.09 79 1014.8
20260506012536 60 331 4.3 11.3 0.00 0.42 0.09 78 1014.7
20260506012046 61 280 5.2 11.3 0.00 0.42 0.09 79 1014.9
20260506011820 61 311 5.2 10.4 0.00 0.42 0.09 78 1014.8
20260506011029 61 319 5.2 12.2 0.00 0.42 0.09 78 1014.9
20260506010543 61 299 5.2 12.2 0.00 0.42 0.09 78 1014.9
20260506010203 61 313 6.1 13.0 0.00 0.42 0.09 78 1014.8
20260506005546 61 355 6.1 13.0 0.00 0.44 0.09 78 1014.9
20260506005036 61 324 5.2 12.2 0.00 0.44 0.09 78 1014.8
20260506004657 61 317 5.2 12.2 0.00 0.44 0.09 78 1014.9
20260506004015 61 310 6.1 11.3 0.00 0.44 0.09 78 1014.8
20260506003532 61 309 6.1 11.3 0.00 0.44 0.09 78 1015.0
20260506003150 61 308 3.5 11.3 0.00 0.44 0.09 78 1014.9
20260506002525 61 307 5.2 10.4 0.00 0.44 0.09 78 1014.9
20260506002019 61 288 6.1 12.2 0.00 0.44 0.09 78 1014.7
20260506001613 62 313 7.0 12.2 0.00 0.44 0.09 78 1014.6
20260506001041 62 297 4.3 10.4 0.00 0.44 0.09 77 1014.6
20260506000538 62 336 5.2 9.6 0.00 0.44 0.09 78 1014.5
20260506000211 62 330 2.6 10.4 0.00 0.44 0.09 78 1014.7
20260505235534 62 345 4.3 10.4 0.00 0.44 0.09 77 1014.6
20260505235040 62 325 6.1 11.3 0.00 0.44 0.09 76 1014.6
20260505234702 63 302 4.3 10.4 0.00 0.44 0.09 76 1014.7
20260505234026 63 313 3.5 11.3 0.00 0.44 0.09 76 1014.6
20260505233539 63 267 6.1 11.3 0.00 0.44 0.09 75 1014.9
20260505233203 63 332 5.2 10.4 0.00 0.44 0.09 76 1014.7
20260505232522 64 316 6.1 10.4 0.00 0.44 0.09 75 1014.6
20260505232043 64 319 5.2 10.4 0.00 0.44 0.09 76 1014.6
20260505231655 64 268 4.3 9.6 0.00 0.44 0.09 75 1014.6
20260505231030 65 326 4.3 13.0 0.00 0.44 0.09 75 1014.6
20260505230539 65 316 5.2 13.0 0.00 0.44 0.09 75 1014.6
20260505230210 65 328 5.2 11.3 0.00 0.44 0.09 75 1014.6
20260505225540 64 292 6.1 11.3 0.00 0.44 0.09 75 1014.7
20260505225030 64 312 6.1 11.3 0.00 0.44 0.09 75 1014.5
20260505224659 65 309 6.1 9.6 0.00 0.44 0.09 75 1014.5
20260505224017 64 257 6.1 9.6 0.00 0.44 0.09 75 1014.6
20260505223543 64 319 5.2 9.6 0.00 0.44 0.09 75 1014.7
20260505223113 64 337 7.0 10.4 0.00 0.44 0.09 75 1014.7
20260505222523 64 295 7.0 10.4 0.00 0.44 0.09 75 1014.9
20260505222033 65 313 4.3 9.6 0.00 0.44 0.09 75 1015.0
20260505221704 65 285 4.3 8.7 0.00 0.44 0.09 74 1014.7
20260505221031 65 301 4.3 9.6 0.00 0.44 0.09 75 1014.8
20260505220526 64 282 2.6 10.4 0.00 0.44 0.09 76 1014.8
20260505220157 65 322 4.3 10.4 0.00 0.44 0.09 76 1014.9
20260505215534 64 335 4.3 9.6 0.00 0.44 0.09 75 1014.9
20260505215033 65 337 3.5 7.8 0.00 0.44 0.09 75 1014.9
20260505214644 64 309 2.6 7.8 0.00 0.44 0.09 75 1014.8
20260505214026 64 295 4.3 9.6 0.00 0.44 0.09 76 1014.9
20260505213531 64 295 4.3 9.6 0.00 0.44 0.09 76 1014.9
20260505213153 64 330 3.5 8.7 0.00 0.44 0.09 78 1015.0
20260505212542 63 320 6.1 8.7 0.00 0.44 0.09 77 1014.9
20260505212045 63 288 5.2 8.7 0.00 0.44 0.09 76 1015.0
20260505211703 63 286 5.2 8.7 0.00 0.44 0.09 77 1015.0
20260505211040 63 310 3.5 8.7 0.00 0.44 0.09 77 1015.1
20260505210520 63 327 3.5 8.7 0.00 0.44 0.09 77 1015.1
20260505210214 63 322 5.2 10.4 0.00 0.44 0.09 77 1015.1
20260505205543 63 278 4.3 10.4 0.00 0.44 0.09 77 1015.1
20260505205024 63 293 4.3 9.6 0.00 0.44 0.09 77 1015.1
20260505204637 63 328 4.3 9.6 0.00 0.44 0.09 77 1015.2
20260505204032 63 319 3.5 9.6 0.00 0.44 0.09 76 1015.1
20260505203543 63 303 4.3 8.7 0.00 0.44 0.09 78 1015.2
20260505203142 63 274 4.3 9.6 0.00 0.44 0.09 77 1015.0
20260505202542 63 311 5.2 10.4 0.00 0.44 0.09 77 1015.2
20260505202025 62 294 5.2 10.4 0.00 0.44 0.09 78 1015.1